"Pseudo-MPEC" for P11XV3X

Created 2024 Sep 6 16:22:12 UT using Find_Orb

Click here for an explanation of pseudo-MPECs

 
 Astrometry: 
     P11XV3X* C2024 09 04.34658321 40 17.781-40 59 15.59   ~94A7 20.28wXNEOCPF51
     P11XV3X  C2024 09 04.35745921 40 13.486-40 59 12.22   ~94A7 20.16wXNEOCPF51
     P11XV3X  C2024 09 04.36832121 40 09.207-40 59 08.82   ~94A7 20.44wXNEOCPF51
     P11XV3X  C2024 09 04.37915621 40 04.921-40 59 04.96   ~94A7 20.10wXNEOCPF51
     P11XV3X  C2024 09 04.41729921 39 49.820-40 58 50.68   ~94K7 20.08GVNEOCPF51
     P11XV3X  C2024 09 04.41794021 39 49.552-40 58 50.45   ~94K7 20.19GVNEOCPF51
     P11XV3X KB2024 09 05.05338121 35 50.773-40 54 00.96   ~952q 19.5 VZNEOCPY05
     P11XV3X KB2024 09 05.07084121 35 43.504-40 53 52.72   ~952q 20.3 VZNEOCPY05
     P11XV3X KB2024 09 05.08829321 35 36.190-40 53 43.27   ~952q 18.8 VZNEOCPY05
     P11XV3X KC2024 09 05.31606 21 34 10.66 -40 51 25.4    ~958q 19.8 VqNEOCPE94
     P11XV3X KC2024 09 05.32564 21 34 06.72 -40 51 21.7    ~958q 19.9 VqNEOCPE94
     P11XV3X  C2024 09 05.33207221 34 02.809-40 52 10.55   ~959q 20.10wXNEOCPF51
     P11XV3X KC2024 09 05.33508 21 34 02.82 -40 51 18.1    ~958q 20.0 VqNEOCPE94
     P11XV3X  C2024 09 05.34029321 33 59.338-40 52 06.78   ~959q 20.13wXNEOCPF51
     P11XV3X  C2024 09 05.34848621 33 55.870-40 52 02.76   ~959q 20.00wXNEOCPF51
     P11XV3X  C2024 09 05.35666821 33 52.420-40 51 58.82   ~959q 20.18wXNEOCPF51
     P11XV3X  C2024 09 05.36135721 33 50.424-40 51 56.48   ~95Ib 19.85GVNEOCPF51
     P11XV3X  C2024 09 05.36218121 33 50.083-40 51 56.06   ~95Ib 20.07GVNEOCPF51
     P11XV3X |C2024 09 06.02848021 29 22.590-40 44 37.90   ~961q 20.0 GVNEOCP807
     P11XV3X |C2024 09 06.03061021 29 21.670-40 44 36.70   ~961q 19.6 GVNEOCP807
     P11XV3X |C2024 09 06.03281021 29 20.700-40 44 35.40   ~961q 19.7 GVNEOCP807

Station data:
(807) Cerro Tololo Observatory, La Serena  (S30.169133 W70.805900)  Chile.
   Observer R. Holmes. 0.61-m f/6.5 astrograph + CCD.
(E94) Gisborne (Possum Observatory)  (S38.629920 E177.883310)  New Zealand.
   Observer J. Drummond. 0.41-m f/4.5 Newtonian reflector + CCD.
(F51) Pan-STARRS 1, Haleakala  (N20.707234 W156.255910)  US/Hawaii.
   Observers J. Bulger, T. Lowe, A. Schultz, M. Willman. Measurers K.
   Chambers, S. Chastel, T. de Boer, L. Denneau, J. Fairlamb, H. Flewelling,
   M. Huber, C.-C. Lin, E. Magnier, Y. Ramanjooloo, R. Wainscoat, R. Weryk.
   1.8-m Ritchey-Chrétien + CCD.
(Y05) SONEAR Wykrota-CEAMIG, Serra da Piedade  (S19.824251 W43.690000)
   Brazil.  Observer C. Jacques. 0.45-m f/2.9 reflector + CMO.

Orbital elements:  P11XV3X
   Perihelion 2024 Nov 3.18229 +/- 0.0601 TT =  4:22:29 (JD 2460617.68229)
Epoch 2024 Sep  6.0 TT = JDT 2460559.5   Earth MOID: 0.0087   Ma: 0.0089
M 337.16605928 +/- 0.16             (J2000 ecliptic)             AutoNEOCP
n   0.39245518 +/- 0.00255          Peri.   60.60777 +/- 0.034
a   1.84760588 +/- 0.00799          Node   353.53510 +/- 0.016
e   0.5467990 +/- 0.00217           Incl.   13.51383 +/- 0.043
P   2.511/917.285d         H 22.27  G  0.15   U  8.7
q 0.83733679 +/- 0.000426    Q 2.85787496 +/- 0.0164
From 21 observations 2024 Sept. 4-6 (40.5 hr); mean residual 0".26
Residuals in arcseconds: 
240904 F51  .05-  .04-    240905 Y05  .24+  .41+    240905 F51  .03-  .06+    
240904 F51  .10-  .04-    240905 Y05  .47-  1.2+    240905 F51  .11+  .04-    
240904 F51  .04+  .17-    240905 E94  .14-  .17+    240905 F51  .01-  .06-    
240904 F51  .03+  .00     240905 E94  .21-  .09+    240905 F51  .08+  .05-    
240904 F51  .11+  .05-    240905 F51  .04+  .06+    240906 807  .06-  .34-    
240904 F51  .05-  .08-    240905 E94  .35-  .11-    240906 807  .04+  .29-    
240905 Y05  .48+  .34+    240905 F51  .03+  .02-    240906 807  .08-  .18-    

Ephemerides (geocentric):
Date (UTC) HH   RA             Dec           delta  r     elong  mag " sig PA
---- --------  ------------   ------------  ------ ------ -----  --- --------
2024 09 06 16  21 24 49.224   -40 36 48.89  .15218 1.1277 139.3 19.9 .224 125
2024 09 06 17  21 24 31.110   -40 36 15.37  .15190 1.1273 139.3 19.9 .231 124
2024 09 06 18  21 24 12.942   -40 35 41.45  .15162 1.1270 139.2 19.9 .238 124
2024 09 06 19  21 23 54.719   -40 35 07.12  .15134 1.1267 139.2 19.9 .245 123
2024 09 06 20  21 23 36.441   -40 34 32.39  .15106 1.1263 139.1 19.9 .253 123
2024 09 06 21  21 23 18.108   -40 33 57.24  .15078 1.1260 139.0 19.9 .260 123
2024 09 06 22  21 22 59.720   -40 33 21.69  .15050 1.1257 139.0 19.9 .268 122
2024 09 06 23  21 22 41.277   -40 32 45.71  .15022 1.1253 138.9 19.9 .276 122
2024 09 07 00  21 22 22.778   -40 32 09.32  .14994 1.1250 138.8 19.9 .284 122
2024 09 07 01  21 22 04.224   -40 31 32.51  .14966 1.1247 138.8 19.9 .293 121
2024 09 07 02  21 21 45.613   -40 30 55.27  .14939 1.1244 138.7 19.9 .302 121
2024 09 07 03  21 21 26.947   -40 30 17.60  .14911 1.1240 138.7 19.9 .310 121
2024 09 07 04  21 21 08.225   -40 29 39.51  .14883 1.1237 138.6 19.9 .320 121
2024 09 07 05  21 20 49.446   -40 29 00.99  .14855 1.1234 138.5 19.9 .329 120
2024 09 07 06  21 20 30.610   -40 28 22.03  .14828 1.1230 138.5 19.9 .338 120
2024 09 07 07  21 20 11.718   -40 27 42.63  .14800 1.1227 138.4 19.9 .348 120
2024 09 07 08  21 19 52.769   -40 27 02.79  .14772 1.1224 138.3 19.9 .358 120
2024 09 07 09  21 19 33.763   -40 26 22.51  .14744 1.1220 138.3 19.8 .368 120
2024 09 07 10  21 19 14.700   -40 25 41.78  .14717 1.1217 138.2 19.8 .378 119
2024 09 07 11  21 18 55.579   -40 25 00.61  .14689 1.1214 138.2 19.8 .389 119
2024 09 07 12  21 18 36.401   -40 24 18.98  .14662 1.1210 138.1 19.8 .400 119
2024 09 07 13  21 18 17.165   -40 23 36.90  .14634 1.1207 138.0 19.8 .411 119
2024 09 07 14  21 17 57.871   -40 22 54.36  .14606 1.1204 138.0 19.8 .422 119
2024 09 07 15  21 17 38.519   -40 22 11.36  .14579 1.1201 137.9 19.8 .434 119
2024 09 07 16  21 17 19.108   -40 21 27.89  .14551 1.1197 137.8 19.8 .445 119
2024 09 07 17  21 16 59.639   -40 20 43.96  .14524 1.1194 137.8 19.8 .457 119
2024 09 07 18  21 16 40.112   -40 19 59.56  .14497 1.1191 137.7 19.8 .470 119
2024 09 07 19  21 16 20.525   -40 19 14.69  .14469 1.1187 137.6 19.8 .482 119
2024 09 07 20  21 16 00.880   -40 18 29.34  .14442 1.1184 137.6 19.8 .495 119
2024 09 07 21  21 15 41.175   -40 17 43.51  .14414 1.1181 137.5 19.8 .508 119
2024 09 07 22  21 15 21.411   -40 16 57.20  .14387 1.1178 137.4 19.8 .521 119
2024 09 07 23  21 15 01.588   -40 16 10.41  .14360 1.1174 137.4 19.8 .534 119
2024 09 08 00  21 14 41.704   -40 15 23.12  .14332 1.1171 137.3 19.8 .548 119
2024 09 08 01  21 14 21.761   -40 14 35.35  .14305 1.1168 137.2 19.8 .562 119
2024 09 08 02  21 14 01.758   -40 13 47.08  .14278 1.1164 137.2 19.8 .576 119
2024 09 08 03  21 13 41.694   -40 12 58.32  .14250 1.1161 137.1 19.8 .590 119
2024 09 08 04  21 13 21.570   -40 12 09.05  .14223 1.1158 137.0 19.8 .605 119
2024 09 08 05  21 13 01.385   -40 11 19.28  .14196 1.1154 137.0 19.8 .620 119
2024 09 08 06  21 12 41.140   -40 10 29.00  .14169 1.1151 136.9 19.8 .635 119
2024 09 08 07  21 12 20.833   -40 09 38.21  .14142 1.1148 136.8 19.8 .650 119
2024 09 08 08  21 12 00.465   -40 08 46.91  .14114 1.1145 136.8 19.8 .666 119
2024 09 08 09  21 11 40.036   -40 07 55.09  .14087 1.1141 136.7 19.8 .682 119
2024 09 08 10  21 11 19.545   -40 07 02.75  .14060 1.1138 136.6 19.8 .698 119
2024 09 08 11  21 10 58.993   -40 06 09.88  .14033 1.1135 136.6 19.8 .715 119
2024 09 08 12  21 10 38.378   -40 05 16.49  .14006 1.1131 136.5 19.8 .732 119
2024 09 08 13  21 10 17.701   -40 04 22.57  .13979 1.1128 136.4 19.8 .749 119
2024 09 08 14  21 09 56.963   -40 03 28.11  .13952 1.1125 136.3 19.8 .766 119
2024 09 08 15  21 09 36.161   -40 02 33.11  .13925 1.1122 136.3 19.8 .784 119